Fond du Lac, WI

3:05 AM CST on December 15, 2017 (GMT -0600)
Fond du Lac County

Weather History for KFLD - July, 2013

Change the Weather History Date:

Monday, July 22, 2013

  Actual Average Record
Temperature  
Mean Temperature 72 °F -  
Max Temperature 84 °F 81 °F 94 °F (1975)
Min Temperature 60 °F 62 °F 48 °F (1958)
Cooling Degree Days 7    
Growing Degree Days 22 (Base 50)    
Moisture  
Dew Point 63 °F    
Average Humidity 81    
Maximum Humidity 96    
Minimum Humidity 53    
Precipitation  
Precipitation 0.00 in - - ()
Sea Level Pressure  
Sea Level Pressure 29.81 in    
Wind  
Wind Speed 4 mph (SSW)    
Max Wind Speed 16 mph    
Max Gust Speed 25 mph    
Visibility 7 miles    
Events Fog    
Averages and records for this station are not official NWS values.
T = Trace of Precipitation, MM = Missing Value Source: NWS Daily Summary

Daily Weather History Graph

Daily Weather History Graph

Search for Another Location

Airport or City:

Trip Planner

Search our weather history database for the weather conditions in past years. The results will help you decide how hot, cold, wet, or windy it might be!

Date:

Astronomy

Jul. 22, 2013 Rise Set
Actual Time 5:32 AM CDT 8:27 PM CDT
Civil Twilight 4:58 AM CDT 9:01 PM CDT
Nautical Twilight 4:15 AM CDT 9:44 PM CDT
Astronomical Twilight 3:24 AM CDT 10:34 PM CDT
Moon 8:10 PM CDT (7/22) 5:30 AM CDT (7/22)
Length of Visible Light 16h 02m
Length of Day
14h 55m
Full, 100% of the Moon is Illuminated
Jul 22
Full
Jul 22
Full
Jul 29
Last Quarter
Aug 6
New
Aug 14
First Quarter

Hourly Weather History & Observations

Time (CDT) Temp. Heat Index Dew Point Humidity Pressure Visibility Wind Dir Wind Speed Gust Speed Precip Events Conditions
12:53 AM 62.1 °F - 59.0 °F 90% 29.91 in 10.0 mi Calm Calm - N/A   Clear
1:53 AM 61.0 °F - 57.9 °F 90% 29.88 in 10.0 mi East 4.6 mph - N/A   Clear
2:53 AM 61.0 °F - 57.9 °F 90% 29.87 in 10.0 mi ESE 4.6 mph - N/A   Partly Cloudy
3:41 AM 60.8 °F - 57.2 °F 88% 29.88 in 9.0 mi Calm Calm - N/A   Overcast
3:47 AM 60.8 °F - 59.0 °F 94% 29.88 in 8.0 mi Calm Calm - N/A   Overcast
3:53 AM 61.0 °F - 59.0 °F 93% 29.88 in 9.0 mi Calm Calm - N/A   Overcast
4:30 AM 60.8 °F - 59.0 °F 94% 29.87 in 1.8 mi Calm Calm - N/A   Overcast
4:37 AM 60.8 °F - 59.0 °F 94% 29.88 in 0.8 mi Calm Calm - N/A   Overcast
4:53 AM 62.1 °F - 61.0 °F 96% 29.87 in 0.5 mi Calm Calm - N/A Fog Fog
5:20 AM 62.6 °F - 60.8 °F 94% 29.86 in 1.8 mi South 4.6 mph - N/A   Overcast
5:27 AM 62.6 °F - 60.8 °F 94% 29.85 in 2.0 mi South 4.6 mph - N/A   Overcast
5:34 AM 62.6 °F - 60.8 °F 94% 29.85 in 1.5 mi South 4.6 mph - N/A   Overcast
5:51 AM 62.6 °F - 60.8 °F 94% 29.84 in 2.0 mi South 4.6 mph - N/A   Mostly Cloudy
5:53 AM 62.1 °F - 60.1 °F 93% 29.84 in 2.0 mi South 3.5 mph - N/A   Mostly Cloudy
5:58 AM 62.6 °F - 60.8 °F 94% 29.85 in 3.0 mi Calm Calm - N/A   Scattered Clouds
6:34 AM 64.4 °F - 60.8 °F 88% 29.85 in 7.0 mi Calm Calm - N/A   Mostly Cloudy
6:43 AM 64.4 °F - 60.8 °F 88% 29.86 in 6.0 mi Calm Calm - N/A   Overcast
6:53 AM 64.0 °F - 62.1 °F 93% 29.86 in 6.0 mi Calm Calm - N/A   Overcast
7:13 AM 64.4 °F - 62.6 °F 94% 29.86 in 5.0 mi South 4.6 mph - N/A   Overcast
7:53 AM 66.0 °F - 63.0 °F 90% 29.85 in 5.0 mi South 6.9 mph - N/A   Overcast
8:25 AM 68.0 °F - 64.4 °F 88% 29.84 in 7.0 mi South 6.9 mph - N/A   Overcast
8:50 AM 69.8 °F - 64.4 °F 83% 29.84 in 8.0 mi South 8.1 mph - N/A   Mostly Cloudy
8:53 AM 69.1 °F - 64.0 °F 84% 29.84 in 8.0 mi South 8.1 mph - N/A   Mostly Cloudy
9:43 AM 73.4 °F - 66.2 °F 78% 29.83 in 10.0 mi WSW 8.1 mph - N/A   Scattered Clouds
9:53 AM 73.0 °F - 66.9 °F 81% 29.82 in 10.0 mi SW 5.8 mph - N/A   Partly Cloudy
10:53 AM 75.0 °F - 66.9 °F 76% 29.82 in 10.0 mi WSW 5.8 mph - N/A   Clear
11:53 AM 78.1 °F - 66.9 °F 68% 29.82 in 10.0 mi South 9.2 mph - N/A   Clear
12:53 PM 80.1 °F 81.9 °F 64.9 °F 60% 29.80 in 10.0 mi SW 12.7 mph 20.7 mph N/A   Clear
1:53 PM 82.0 °F 83.8 °F 64.9 °F 56% 29.76 in 10.0 mi SSW 11.5 mph - N/A   Clear
2:53 PM 82.9 °F 84.6 °F 64.9 °F 54% 29.74 in 10.0 mi SSW 12.7 mph 23.0 mph N/A   Clear
3:53 PM 82.9 °F 84.4 °F 64.0 °F 53% 29.71 in 10.0 mi SSW 15.0 mph 23.0 mph N/A   Clear
4:53 PM 84.0 °F 86.3 °F 66.0 °F 55% 29.71 in 10.0 mi SSW 16.1 mph 25.3 mph N/A   Clear
5:53 PM 82.9 °F 85.0 °F 66.0 °F 56% 29.70 in 10.0 mi SSW 13.8 mph 19.6 mph N/A   Clear
6:53 PM 81.0 °F 83.3 °F 66.9 °F 62% 29.71 in 10.0 mi SSW 6.9 mph - N/A   Partly Cloudy
7:53 PM 79.0 °F - 66.9 °F 66% 29.66 in 10.0 mi South 12.7 mph - N/A   Scattered Clouds
8:53 PM 77.0 °F - 66.9 °F 71% 29.71 in 10.0 mi Calm Calm - N/A   Clear
9:53 PM 73.9 °F - 68.0 °F 82% 29.69 in 10.0 mi South 5.8 mph - N/A   Clear
10:53 PM 75.9 °F - 68.0 °F 76% 29.69 in 10.0 mi SSW 6.9 mph - N/A   Clear
11:53 PM 75.9 °F - 66.9 °F 74% 29.70 in 10.0 mi SW 8.1 mph - N/A   Partly Cloudy